Time,TemperatureF,DewpointF,PressureIn,WindDirection,WindDirectionDegrees,WindSpeedMPH,WindSpeedGustMPH,Humidity,HourlyPrecipIn,Conditions,Clouds,dailyrainin,SoftwareType,DateUTC
2013-10-17 00:01:00,50.0,41.4,29.95,North,0,2.0,3.0,72,0.00,,,0.00,meteohub,2013-10-17 05:01:00,
2013-10-17 00:06:00,50.0,41.4,29.94,North,0,2.0,2.0,72,0.00,,,0.00,meteohub,2013-10-17 05:06:00,
2013-10-17 00:11:00,49.8,41.5,29.94,South,180,2.0,3.0,73,0.00,,,0.00,meteohub,2013-10-17 05:11:00,
2013-10-17 00:16:00,49.6,41.4,29.94,West,270,1.0,3.0,73,0.00,,,0.00,meteohub,2013-10-17 05:16:00,
2013-10-17 00:21:00,49.5,41.5,29.94,SW,225,0.0,3.0,74,0.00,,,0.00,meteohub,2013-10-17 05:21:00,
2013-10-17 00:26:00,49.3,41.4,29.94,West,270,1.0,3.0,74,0.00,,,0.00,meteohub,2013-10-17 05:26:00,
2013-10-17 00:31:00,49.1,41.5,29.94,West,270,2.0,2.0,75,0.00,,,0.00,meteohub,2013-10-17 05:31:00,
2013-10-17 00:36:00,49.1,41.5,29.94,South,180,2.0,2.0,75,0.00,,,0.00,meteohub,2013-10-17 05:36:00,
2013-10-17 00:41:00,48.9,41.7,29.93,SW,225,1.0,4.0,76,0.00,,,0.00,meteohub,2013-10-17 05:41:00,
2013-10-17 00:46:00,48.9,41.7,29.93,West,270,2.0,4.0,76,0.00,,,0.00,meteohub,2013-10-17 05:46:00,
2013-10-17 00:51:00,48.9,42.1,29.93,SW,225,2.0,4.0,77,0.00,,,0.00,meteohub,2013-10-17 05:51:00,
2013-10-17 00:57:00,48.9,41.7,29.94,West,270,2.0,4.0,76,0.00,,,0.00,meteohub,2013-10-17 05:57:00,
2013-10-17 01:02:00,48.9,41.7,29.94,West,270,2.0,4.0,76,0.00,,,0.00,meteohub,2013-10-17 06:02:00,
2013-10-17 01:07:00,48.9,41.7,29.94,West,270,2.0,4.0,76,0.00,,,0.00,meteohub,2013-10-17 06:07:00,
2013-10-17 01:12:00,48.9,41.4,29.93,West,270,2.0,4.0,75,0.00,,,0.00,meteohub,2013-10-17 06:12:00,
2013-10-17 01:17:00,48.9,41.4,29.93,West,270,1.0,2.0,75,0.00,,,0.00,meteohub,2013-10-17 06:17:00,
2013-10-17 01:22:00,48.7,41.5,29.93,SW,225,2.0,2.0,76,0.00,,,0.00,meteohub,2013-10-17 06:22:00,
2013-10-17 01:27:00,48.7,41.5,29.94,West,270,2.0,2.0,76,0.00,,,0.00,meteohub,2013-10-17 06:27:00,
2013-10-17 01:32:00,48.7,41.5,29.94,West,270,3.0,3.0,76,0.00,,,0.00,meteohub,2013-10-17 06:32:00,
2013-10-17 01:37:00,48.6,41.4,29.94,West,270,2.0,3.0,76,0.00,,,0.00,meteohub,2013-10-17 06:37:00,
2013-10-17 01:42:00,48.6,41.4,29.93,West,270,1.0,3.0,76,0.00,,,0.00,meteohub,2013-10-17 06:42:00,
2013-10-17 01:47:00,48.4,41.5,29.93,NW,315,2.0,3.0,77,0.00,,,0.00,meteohub,2013-10-17 06:47:00,
2013-10-17 01:52:00,48.4,41.5,29.93,West,270,2.0,3.0,77,0.00,,,0.00,meteohub,2013-10-17 06:52:00,
2013-10-17 01:57:00,48.2,41.4,29.93,SW,225,1.0,3.0,77,0.00,,,0.00,meteohub,2013-10-17 06:57:00,
2013-10-17 02:02:00,48.2,41.4,29.93,West,270,3.0,4.0,77,0.00,,,0.00,meteohub,2013-10-17 07:02:00,
2013-10-17 02:07:00,48.2,41.4,29.93,West,270,3.0,4.0,77,0.00,,,0.00,meteohub,2013-10-17 07:07:00,
2013-10-17 02:12:00,48.2,41.4,29.93,NW,315,2.0,4.0,77,0.00,,,0.00,meteohub,2013-10-17 07:12:00,
2013-10-17 02:17:00,48.2,41.0,29.93,SW,225,2.0,4.0,76,0.00,,,0.00,meteohub,2013-10-17 07:17:00,
2013-10-17 02:22:00,48.0,40.8,29.93,SW,225,3.0,4.0,76,0.00,,,0.00,meteohub,2013-10-17 07:22:00,
2013-10-17 02:27:00,48.0,40.8,29.93,West,270,2.0,4.0,76,0.00,,,0.00,meteohub,2013-10-17 07:27:00,
2013-10-17 02:32:00,48.2,41.0,29.93,NW,315,2.0,4.0,76,0.00,,,0.00,meteohub,2013-10-17 07:32:00,
2013-10-17 02:37:00,48.0,40.8,29.93,NW,315,3.0,4.0,76,0.00,,,0.00,meteohub,2013-10-17 07:37:00,
2013-10-17 02:42:00,48.0,40.8,29.93,West,270,3.0,4.0,76,0.00,,,0.00,meteohub,2013-10-17 07:42:00,
2013-10-17 02:47:00,48.0,40.8,29.93,SW,225,2.0,4.0,76,0.00,,,0.00,meteohub,2013-10-17 07:47:00,
2013-10-17 02:52:00,48.0,40.8,29.92,SW,225,4.0,4.0,76,0.00,,,0.00,meteohub,2013-10-17 07:52:00,
2013-10-17 02:57:00,47.8,40.6,29.93,SW,225,2.0,4.0,76,0.00,,,0.00,meteohub,2013-10-17 07:57:00,
2013-10-17 03:02:00,47.8,40.6,29.92,West,270,4.0,4.0,76,0.00,,,0.00,meteohub,2013-10-17 08:02:00,
2013-10-17 03:07:00,47.8,40.6,29.92,West,270,4.0,4.0,76,0.00,,,0.00,meteohub,2013-10-17 08:07:00,
2013-10-17 03:09:00,47.5,40.6,29.92,WNW,293,2.0,4.0,77,0.00,,,0.00,meteohub,2013-10-17 08:09:00,
2013-10-17 03:14:00,47.3,40.5,29.91,West,270,2.0,4.0,77,0.00,,,0.00,meteohub,2013-10-17 08:14:00,
2013-10-17 03:19:00,47.1,40.6,29.92,West,270,2.0,4.0,78,0.00,,,0.00,meteohub,2013-10-17 08:19:00,
2013-10-17 03:24:00,46.8,40.3,29.91,SW,225,2.0,4.0,78,0.00,,,0.00,meteohub,2013-10-17 08:24:00,
2013-10-17 03:29:00,46.6,40.5,29.91,West,270,2.0,3.0,79,0.00,,,0.00,meteohub,2013-10-17 08:29:00,
2013-10-17 03:34:00,46.4,40.3,29.91,SW,225,2.0,3.0,79,0.00,,,0.00,meteohub,2013-10-17 08:34:00,
2013-10-17 03:39:00,46.2,40.5,29.91,SW,225,1.0,3.0,80,0.00,,,0.00,meteohub,2013-10-17 08:39:00,
2013-10-17 03:44:00,46.0,39.9,29.91,West,270,2.0,2.0,79,0.00,,,0.00,meteohub,2013-10-17 08:44:00,
2013-10-17 03:49:00,45.7,39.9,29.91,West,270,2.0,2.0,80,0.00,,,0.00,meteohub,2013-10-17 08:49:00,
2013-10-17 03:55:00,45.5,39.7,29.91,West,270,2.0,2.0,80,0.00,,,0.00,meteohub,2013-10-17 08:55:00,
2013-10-17 04:00:00,45.3,39.9,29.91,NW,315,2.0,2.0,81,0.00,,,0.00,meteohub,2013-10-17 09:00:00,
2013-10-17 04:05:00,45.3,39.9,29.91,NW,315,2.0,2.0,81,0.00,,,0.00,meteohub,2013-10-17 09:05:00,
2013-10-17 04:10:00,45.1,40.3,29.91,West,270,2.0,2.0,83,0.00,,,0.00,meteohub,2013-10-17 09:10:00,
2013-10-17 04:15:00,45.1,40.3,29.91,West,270,3.0,4.0,83,0.00,,,0.00,meteohub,2013-10-17 09:15:00,
2013-10-17 04:20:00,45.0,40.1,29.91,SW,225,2.0,4.0,83,0.00,,,0.00,meteohub,2013-10-17 09:20:00,
2013-10-17 04:25:00,44.8,39.9,29.91,WNW,293,2.0,4.0,83,0.00,,,0.00,meteohub,2013-10-17 09:25:00,
2013-10-17 04:30:00,44.8,40.3,29.91,West,270,2.0,4.0,84,0.00,,,0.00,meteohub,2013-10-17 09:30:00,
2013-10-17 04:35:00,44.6,40.1,29.91,SW,225,2.0,3.0,84,0.00,,,0.00,meteohub,2013-10-17 09:35:00,
2013-10-17 04:40:00,44.4,39.9,29.91,West,270,2.0,3.0,84,0.00,,,0.00,meteohub,2013-10-17 09:40:00,
2013-10-17 04:45:00,44.4,39.9,29.91,West,270,4.0,4.0,84,0.00,,,0.00,meteohub,2013-10-17 09:45:00,
2013-10-17 04:50:00,44.4,39.9,29.92,SW,225,3.0,4.0,84,0.00,,,0.00,meteohub,2013-10-17 09:50:00,
2013-10-17 04:55:00,44.4,39.9,29.92,West,270,2.0,4.0,84,0.00,,,0.00,meteohub,2013-10-17 09:55:00,
2013-10-17 05:00:00,44.2,39.7,29.91,West,270,2.0,4.0,84,0.00,,,0.00,meteohub,2013-10-17 10:00:00,
2013-10-17 05:05:00,44.2,39.7,29.92,West,270,2.0,3.0,84,0.00,,,0.00,meteohub,2013-10-17 10:05:00,
2013-10-17 05:10:00,44.1,39.6,29.91,WNW,293,3.0,3.0,84,0.00,,,0.00,meteohub,2013-10-17 10:10:00,
2013-10-17 05:15:00,43.9,39.7,29.91,West,270,2.0,3.0,85,0.00,,,0.00,meteohub,2013-10-17 10:15:00,
2013-10-17 05:20:00,43.7,39.2,29.91,SW,225,2.0,3.0,84,0.00,,,0.00,meteohub,2013-10-17 10:20:00,
2013-10-17 05:25:00,43.7,39.6,29.91,West,270,2.0,3.0,85,0.00,,,0.00,meteohub,2013-10-17 10:25:00,
2013-10-17 05:30:00,43.5,39.4,29.91,South,180,1.0,3.0,85,0.00,,,0.00,meteohub,2013-10-17 10:30:00,
2013-10-17 05:35:00,43.2,39.0,29.91,West,270,2.0,3.0,85,0.00,,,0.00,meteohub,2013-10-17 10:35:00,
2013-10-17 05:41:00,43.2,39.0,29.91,West,270,3.0,3.0,85,0.00,,,0.00,meteohub,2013-10-17 10:41:00,
2013-10-17 05:46:00,43.2,39.2,29.92,West,270,2.0,3.0,86,0.00,,,0.00,meteohub,2013-10-17 10:46:00,
2013-10-17 05:51:00,43.2,39.2,29.91,West,270,2.0,3.0,86,0.00,,,0.00,meteohub,2013-10-17 10:51:00,
2013-10-17 05:56:00,43.2,39.0,29.91,SW,225,2.0,4.0,85,0.00,,,0.00,meteohub,2013-10-17 10:56:00,
2013-10-17 06:01:00,43.0,39.0,29.91,SW,225,3.0,4.0,86,0.00,,,0.00,meteohub,2013-10-17 11:01:00,
2013-10-17 06:06:00,43.0,39.0,29.91,SW,225,3.0,3.0,86,0.00,,,0.00,meteohub,2013-10-17 11:06:00,
2013-10-17 06:11:00,43.0,39.0,29.91,West,270,3.0,3.0,86,0.00,,,0.00,meteohub,2013-10-17 11:11:00,
2013-10-17 06:16:00,43.0,39.0,29.91,WSW,248,3.0,3.0,86,0.00,,,0.00,meteohub,2013-10-17 11:16:00,
2013-10-17 06:21:00,43.0,39.0,29.91,NW,315,2.0,3.0,86,0.00,,,0.00,meteohub,2013-10-17 11:21:00,
2013-10-17 06:26:00,43.2,39.2,29.91,SW,225,4.0,4.0,86,0.00,,,0.00,meteohub,2013-10-17 11:26:00,
2013-10-17 06:31:00,43.0,39.0,29.91,NW,315,3.0,4.0,86,0.00,,,0.00,meteohub,2013-10-17 11:31:00,
2013-10-17 06:36:00,43.0,39.0,29.91,West,270,4.0,5.0,86,0.00,,,0.00,meteohub,2013-10-17 11:36:00,
2013-10-17 06:41:00,43.0,39.0,29.91,SW,225,4.0,5.0,86,0.00,,,0.00,meteohub,2013-10-17 11:41:00,
2013-10-17 06:46:00,42.8,38.8,29.91,West,270,3.0,5.0,86,0.00,,,0.00,meteohub,2013-10-17 11:46:00,
2013-10-17 06:51:00,42.6,38.7,29.91,SW,225,4.0,5.0,86,0.00,,,0.00,meteohub,2013-10-17 11:51:00,
2013-10-17 06:57:00,42.6,38.7,29.91,West,270,3.0,5.0,86,0.00,,,0.00,meteohub,2013-10-17 11:57:00,
2013-10-17 07:02:00,42.4,38.5,29.91,WSW,248,2.0,5.0,86,0.00,,,0.00,meteohub,2013-10-17 12:02:00,
2013-10-17 07:07:00,42.4,38.5,29.91,WSW,248,2.0,4.0,86,0.00,,,0.00,meteohub,2013-10-17 12:07:00,
2013-10-17 07:12:00,41.9,37.9,29.91,West,270,2.0,4.0,86,0.00,,,0.00,meteohub,2013-10-17 12:12:00,
2013-10-17 07:17:00,41.7,38.1,29.91,NW,315,2.0,2.0,87,0.00,,,0.00,meteohub,2013-10-17 12:17:00,
2013-10-17 07:22:00,41.7,38.5,29.91,West,270,2.0,3.0,88,0.00,,,0.00,meteohub,2013-10-17 12:22:00,
2013-10-17 07:27:00,41.7,38.5,29.91,West,270,3.0,4.0,88,0.00,,,0.00,meteohub,2013-10-17 12:27:00,
2013-10-17 07:32:00,41.5,38.3,29.91,WSW,248,4.0,4.0,88,0.00,,,0.00,meteohub,2013-10-17 12:32:00,
2013-10-17 07:37:00,41.7,38.5,29.91,West,270,3.0,4.0,88,0.00,,,0.00,meteohub,2013-10-17 12:37:00,
2013-10-17 07:42:00,41.7,38.5,29.91,West,270,4.0,4.0,88,0.00,,,0.00,meteohub,2013-10-17 12:42:00,
2013-10-17 07:47:00,41.7,38.5,29.91,West,270,2.0,4.0,88,0.00,,,0.00,meteohub,2013-10-17 12:47:00,
2013-10-17 07:52:00,41.7,38.5,29.91,West,270,2.0,4.0,88,0.00,,,0.00,meteohub,2013-10-17 12:52:00,
2013-10-17 07:57:00,41.7,38.5,29.91,NW,315,2.0,4.0,88,0.00,,,0.00,meteohub,2013-10-17 12:57:00,
2013-10-17 08:02:00,41.9,38.3,29.91,WNW,293,3.0,3.0,87,0.00,,,0.00,meteohub,2013-10-17 13:02:00,
2013-10-17 08:07:00,41.9,38.3,29.92,WNW,293,3.0,3.0,87,0.00,,,0.00,meteohub,2013-10-17 13:07:00,
2013-10-17 08:12:00,42.3,38.7,29.92,NW,315,4.0,4.0,87,0.00,,,0.00,meteohub,2013-10-17 13:12:00,
2013-10-17 08:17:00,42.4,38.5,29.92,NW,315,4.0,4.0,86,0.00,,,0.00,meteohub,2013-10-17 13:17:00,
2013-10-17 08:22:00,42.6,38.7,29.93,West,270,3.0,6.0,86,0.00,,,0.00,meteohub,2013-10-17 13:22:00,
2013-10-17 08:27:00,42.8,38.7,29.93,SW,225,4.0,8.0,85,0.00,,,0.00,meteohub,2013-10-17 13:27:00,
2013-10-17 08:32:00,43.2,38.7,29.93,NW,315,4.0,8.0,84,0.00,,,0.00,meteohub,2013-10-17 13:32:00,
2013-10-17 08:37:00,43.5,39.0,29.93,West,270,4.0,8.0,84,0.00,,,0.00,meteohub,2013-10-17 13:37:00,
2013-10-17 08:42:00,43.9,39.0,29.94,SW,225,6.0,6.0,83,0.00,,,0.00,meteohub,2013-10-17 13:42:00,
2013-10-17 08:47:00,44.2,39.0,29.94,SW,225,4.0,8.0,82,0.00,,,0.00,meteohub,2013-10-17 13:47:00,
2013-10-17 08:52:00,44.6,39.2,29.94,West,270,5.0,8.0,81,0.00,,,0.00,meteohub,2013-10-17 13:52:00,
2013-10-17 08:57:00,45.1,39.4,29.94,SW,225,6.0,8.0,80,0.00,,,0.00,meteohub,2013-10-17 13:57:00,
2013-10-17 09:02:00,45.3,39.2,29.93,West,270,4.0,8.0,79,0.00,,,0.00,meteohub,2013-10-17 14:02:00,
2013-10-17 09:07:00,45.3,39.2,29.94,West,270,4.0,6.0,79,0.00,,,0.00,meteohub,2013-10-17 14:07:00,
2013-10-17 09:12:00,46.4,39.6,29.93,West,270,4.0,6.0,77,0.00,,,0.00,meteohub,2013-10-17 14:12:00,
2013-10-17 09:17:00,47.1,39.9,29.94,West,270,4.0,6.0,76,0.00,,,0.00,meteohub,2013-10-17 14:17:00,
2013-10-17 09:22:00,47.5,39.6,29.93,West,270,5.0,6.0,74,0.00,,,0.00,meteohub,2013-10-17 14:22:00,
2013-10-17 09:27:00,48.6,40.3,29.94,WSW,248,4.0,7.0,73,0.00,,,0.00,meteohub,2013-10-17 14:27:00,
2013-10-17 09:32:00,50.0,40.6,29.93,SW,225,4.0,7.0,70,0.00,,,0.00,meteohub,2013-10-17 14:32:00,
2013-10-17 09:37:00,51.4,40.8,29.94,West,270,4.0,7.0,67,0.00,,,0.00,meteohub,2013-10-17 14:37:00,
2013-10-17 09:42:00,52.2,39.2,29.93,NW,315,5.0,6.0,61,0.00,,,0.00,meteohub,2013-10-17 14:42:00,
2013-10-17 09:47:00,52.7,40.1,29.94,SW,225,4.0,7.0,62,0.00,,,0.00,meteohub,2013-10-17 14:47:00,
2013-10-17 09:52:00,53.1,39.6,29.94,West,270,6.0,8.0,60,0.00,,,0.00,meteohub,2013-10-17 14:52:00,
2013-10-17 09:57:00,54.0,40.5,29.93,West,270,3.0,8.0,60,0.00,,,0.00,meteohub,2013-10-17 14:57:00,
2013-10-17 10:02:00,54.7,39.7,29.94,NW,315,5.0,8.0,57,0.00,,,0.00,meteohub,2013-10-17 15:02:00,
2013-10-17 10:07:00,54.9,39.4,29.94,West,270,7.0,7.0,56,0.00,,,0.00,meteohub,2013-10-17 15:07:00,
2013-10-17 10:12:00,55.4,39.0,29.94,SW,225,7.0,7.0,54,0.00,,,0.00,meteohub,2013-10-17 15:12:00,
2013-10-17 10:17:00,55.6,39.2,29.94,West,270,7.0,9.0,54,0.00,,,0.00,meteohub,2013-10-17 15:17:00,
2013-10-17 10:22:00,55.6,39.2,29.94,West,270,7.0,9.0,54,0.00,,,0.00,meteohub,2013-10-17 15:22:00,
2013-10-17 10:27:00,56.8,38.8,29.94,West,270,7.0,9.0,51,0.00,,,0.00,meteohub,2013-10-17 15:27:00,
2013-10-17 10:32:00,57.2,38.3,29.93,SW,225,6.0,8.0,49,0.00,,,0.00,meteohub,2013-10-17 15:32:00,
2013-10-17 10:37:00,57.4,38.3,29.94,NW,315,5.0,8.0,49,0.00,,,0.00,meteohub,2013-10-17 15:37:00,
2013-10-17 10:42:00,58.3,39.7,29.93,South,180,5.0,8.0,50,0.00,,,0.00,meteohub,2013-10-17 15:42:00,
2013-10-17 10:47:00,58.8,39.2,29.93,SW,225,7.0,8.0,48,0.00,,,0.00,meteohub,2013-10-17 15:47:00,
2013-10-17 10:52:00,59.0,38.3,29.93,SW,225,5.0,8.0,46,0.00,,,0.00,meteohub,2013-10-17 15:52:00,
2013-10-17 10:57:00,59.5,38.7,29.93,SW,225,8.0,8.0,46,0.00,,,0.00,meteohub,2013-10-17 15:57:00,
2013-10-17 11:02:00,59.9,39.6,29.93,WSW,248,4.0,8.0,47,0.00,,,0.00,meteohub,2013-10-17 16:02:00,
2013-10-17 11:07:00,59.9,39.6,29.93,WSW,248,4.0,8.0,47,0.00,,,0.00,meteohub,2013-10-17 16:07:00,
2013-10-17 11:12:00,60.1,39.2,29.93,NW,315,4.0,8.0,46,0.00,,,0.00,meteohub,2013-10-17 16:12:00,
2013-10-17 11:17:00,60.8,38.7,29.93,NW,315,4.0,7.0,44,0.00,,,0.00,meteohub,2013-10-17 16:17:00,
2013-10-17 11:22:00,60.8,39.4,29.93,SW,225,4.0,7.0,45,0.00,,,0.00,meteohub,2013-10-17 16:22:00,
2013-10-17 11:27:00,61.0,37.8,29.93,WSW,248,5.0,8.0,42,0.00,,,0.00,meteohub,2013-10-17 16:27:00,
2013-10-17 11:32:00,61.0,38.3,29.93,West,270,8.0,8.0,43,0.00,,,0.00,meteohub,2013-10-17 16:32:00,
2013-10-17 11:37:00,61.3,38.1,29.93,West,270,8.0,9.0,42,0.00,,,0.00,meteohub,2013-10-17 16:37:00,
2013-10-17 11:42:00,61.5,39.4,29.93,NW,315,5.0,9.0,44,0.00,,,0.00,meteohub,2013-10-17 16:42:00,
2013-10-17 11:47:00,62.2,38.8,29.93,NW,315,5.0,9.0,42,0.00,,,0.00,meteohub,2013-10-17 16:47:00,
2013-10-17 11:52:00,62.4,39.0,29.92,West,270,11.0,11.0,42,0.00,,,0.00,meteohub,2013-10-17 16:52:00,
2013-10-17 11:57:00,62.8,38.7,29.92,SW,225,2.0,11.0,41,0.00,,,0.00,meteohub,2013-10-17 16:57:00,
2013-10-17 12:02:00,63.0,37.0,29.92,WNW,293,9.0,11.0,38,0.00,,,0.00,meteohub,2013-10-17 17:02:00,
2013-10-17 12:07:00,63.0,37.0,29.92,WNW,293,9.0,11.0,38,0.00,,,0.00,meteohub,2013-10-17 17:07:00,
2013-10-17 12:12:00,63.0,37.0,29.91,West,270,8.0,13.0,38,0.00,,,0.00,meteohub,2013-10-17 17:12:00,
2013-10-17 12:17:00,62.8,36.9,29.91,West,270,8.0,13.0,38,0.00,,,0.00,meteohub,2013-10-17 17:17:00,
2013-10-17 12:22:00,63.3,37.2,29.90,NW,315,8.0,13.0,38,0.00,,,0.00,meteohub,2013-10-17 17:22:00,
2013-10-17 12:27:00,63.9,36.3,29.90,NW,315,8.0,13.0,36,0.00,,,0.00,meteohub,2013-10-17 17:27:00,
2013-10-17 12:32:00,63.9,38.5,29.90,South,180,5.0,12.0,39,0.00,,,0.00,meteohub,2013-10-17 17:32:00,
2013-10-17 12:37:00,64.2,36.7,29.90,West,270,4.0,12.0,36,0.00,,,0.00,meteohub,2013-10-17 17:37:00,
2013-10-17 12:42:00,64.8,35.8,29.90,SW,225,9.0,12.0,34,0.00,,,0.00,meteohub,2013-10-17 17:42:00,
2013-10-17 12:47:00,64.6,35.6,29.90,NW,315,8.0,11.0,34,0.00,,,0.00,meteohub,2013-10-17 17:47:00,
2013-10-17 12:52:00,64.6,34.0,29.90,NW,315,9.0,11.0,32,0.00,,,0.00,meteohub,2013-10-17 17:52:00,
2013-10-17 12:57:00,64.6,34.9,29.89,West,270,7.0,11.0,33,0.00,,,0.00,meteohub,2013-10-17 17:57:00,
2013-10-17 13:02:00,64.6,34.0,29.89,West,270,12.0,12.0,32,0.00,,,0.00,meteohub,2013-10-17 18:02:00,
2013-10-17 13:07:00,64.6,34.0,29.89,West,270,12.0,12.0,32,0.00,,,0.00,meteohub,2013-10-17 18:07:00,
2013-10-17 13:12:00,65.5,34.0,29.89,NW,315,6.0,12.0,31,0.00,,,0.00,meteohub,2013-10-17 18:12:00,
2013-10-17 13:17:00,65.5,34.9,29.89,West,270,8.0,12.0,32,0.00,,,0.00,meteohub,2013-10-17 18:17:00,
2013-10-17 13:22:00,65.7,34.2,29.89,NW,315,6.0,12.0,31,0.00,,,0.00,meteohub,2013-10-17 18:22:00,
2013-10-17 13:27:00,66.4,36.3,29.88,West,270,4.0,11.0,33,0.00,,,0.00,meteohub,2013-10-17 18:27:00,
2013-10-17 13:32:00,67.6,36.7,29.88,NW,315,4.0,11.0,32,0.00,,,0.00,meteohub,2013-10-17 18:32:00,
2013-10-17 13:37:00,67.6,34.2,29.88,NW,315,6.0,10.0,29,0.00,,,0.00,meteohub,2013-10-17 18:37:00,
2013-10-17 13:42:00,66.9,33.6,29.88,SW,225,4.0,11.0,29,0.00,,,0.00,meteohub,2013-10-17 18:42:00,
2013-10-17 13:47:00,67.3,33.1,29.88,West,270,9.0,11.0,28,0.00,,,0.00,meteohub,2013-10-17 18:47:00,
2013-10-17 13:52:00,67.1,34.7,29.88,NNW,338,11.0,15.0,30,0.00,,,0.00,meteohub,2013-10-17 18:52:00,
2013-10-17 13:57:00,66.6,32.4,29.87,West,270,8.0,15.0,28,0.00,,,0.00,meteohub,2013-10-17 18:57:00,
2013-10-17 14:02:00,66.9,33.6,29.87,SW,225,10.0,15.0,29,0.00,,,0.00,meteohub,2013-10-17 19:02:00,
2013-10-17 14:07:00,66.9,33.6,29.86,SW,225,10.0,15.0,29,0.00,,,0.00,meteohub,2013-10-17 19:07:00,
2013-10-17 14:12:00,67.3,33.1,29.86,NW,315,11.0,12.0,28,0.00,,,0.00,meteohub,2013-10-17 19:12:00,
2013-10-17 14:17:00,68.0,32.7,29.86,West,270,9.0,12.0,27,0.00,,,0.00,meteohub,2013-10-17 19:17:00,
2013-10-17 14:22:00,67.8,32.5,29.86,WNW,293,9.0,12.0,27,0.00,,,0.00,meteohub,2013-10-17 19:22:00,
2013-10-17 14:27:00,67.8,31.6,29.86,NW,315,10.0,15.0,26,0.00,,,0.00,meteohub,2013-10-17 19:27:00,
2013-10-17 14:32:00,68.2,32.9,29.86,SW,225,5.0,15.0,27,0.00,,,0.00,meteohub,2013-10-17 19:32:00,
2013-10-17 14:37:00,68.2,32.9,29.86,SW,225,8.0,15.0,27,0.00,,,0.00,meteohub,2013-10-17 19:37:00,
2013-10-17 14:42:00,68.4,33.1,29.86,NNW,338,8.0,13.0,27,0.00,,,0.00,meteohub,2013-10-17 19:42:00,
2013-10-17 14:47:00,68.5,33.3,29.85,SW,225,8.0,13.0,27,0.00,,,0.00,meteohub,2013-10-17 19:47:00,
2013-10-17 14:52:00,68.5,31.3,29.86,SW,225,12.0,14.0,25,0.00,,,0.00,meteohub,2013-10-17 19:52:00,
2013-10-17 14:57:00,68.2,32.9,29.86,North,0,8.0,14.0,27,0.00,,,0.00,meteohub,2013-10-17 19:57:00,
2013-10-17 15:02:00,68.5,32.4,29.86,WNW,293,11.0,14.0,26,0.00,,,0.00,meteohub,2013-10-17 20:02:00,
2013-10-17 15:07:00,68.5,32.4,29.85,WNW,293,11.0,14.0,26,0.00,,,0.00,meteohub,2013-10-17 20:07:00,
2013-10-17 15:12:00,69.1,31.8,29.85,West,270,12.0,12.0,25,0.00,,,0.00,meteohub,2013-10-17 20:12:00,
2013-10-17 15:17:00,68.9,31.6,29.85,NW,315,8.0,12.0,25,0.00,,,0.00,meteohub,2013-10-17 20:17:00,
2013-10-17 15:22:00,69.8,31.5,29.85,NE,45,7.0,12.0,24,0.00,,,0.00,meteohub,2013-10-17 20:22:00,
2013-10-17 15:27:00,69.3,32.0,29.85,NE,45,9.0,12.0,25,0.00,,,0.00,meteohub,2013-10-17 20:27:00,
2013-10-17 15:32:00,69.3,32.0,29.85,West,270,7.0,11.0,25,0.00,,,0.00,meteohub,2013-10-17 20:32:00,
2013-10-17 15:37:00,69.1,30.7,29.85,NW,315,9.0,12.0,24,0.00,,,0.00,meteohub,2013-10-17 20:37:00,
2013-10-17 15:42:00,69.1,29.7,29.85,West,270,12.0,12.0,23,0.00,,,0.00,meteohub,2013-10-17 20:42:00,
2013-10-17 15:47:00,68.2,31.1,29.85,West,270,8.0,15.0,25,0.00,,,0.00,meteohub,2013-10-17 20:47:00,
2013-10-17 15:52:00,67.8,30.7,29.85,SSW,203,10.0,15.0,25,0.00,,,0.00,meteohub,2013-10-17 20:52:00,
2013-10-17 15:57:00,67.3,31.3,29.85,SSW,203,9.0,15.0,26,0.00,,,0.00,meteohub,2013-10-17 20:57:00,
2013-10-17 16:02:00,68.0,29.8,29.84,SW,225,12.0,13.0,24,0.00,,,0.00,meteohub,2013-10-17 21:02:00,
2013-10-17 16:07:00,68.0,29.8,29.85,SW,225,12.0,13.0,24,0.00,,,0.00,meteohub,2013-10-17 21:07:00,
2013-10-17 16:12:00,69.6,30.2,29.84,NW,315,6.0,13.0,23,0.00,,,0.00,meteohub,2013-10-17 21:12:00,
2013-10-17 16:17:00,69.1,28.6,29.85,West,270,8.0,13.0,22,0.00,,,0.00,meteohub,2013-10-17 21:17:00,
2013-10-17 16:22:00,68.7,30.4,29.85,WNW,293,5.0,13.0,24,0.00,,,0.00,meteohub,2013-10-17 21:22:00,
2013-10-17 16:27:00,68.5,30.4,29.84,West,270,13.0,13.0,24,0.00,,,0.00,meteohub,2013-10-17 21:27:00,
2013-10-17 16:32:00,68.2,30.0,29.84,SW,225,9.0,13.0,24,0.00,,,0.00,meteohub,2013-10-17 21:32:00,
2013-10-17 16:37:00,68.9,31.6,29.85,SW,225,4.0,13.0,25,0.00,,,0.00,meteohub,2013-10-17 21:37:00,
2013-10-17 16:42:00,69.6,30.2,29.84,SW,225,5.0,13.0,23,0.00,,,0.00,meteohub,2013-10-17 21:42:00,
2013-10-17 16:47:00,69.6,31.3,29.84,West,270,4.0,12.0,24,0.00,,,0.00,meteohub,2013-10-17 21:47:00,
2013-10-17 16:52:00,68.4,30.2,29.84,SW,225,4.0,8.0,24,0.00,,,0.00,meteohub,2013-10-17 21:52:00,
2013-10-17 16:57:00,66.9,30.0,29.84,NW,315,7.0,9.0,25,0.00,,,0.00,meteohub,2013-10-17 21:57:00,
2013-10-17 17:02:00,67.5,29.5,29.84,NNW,338,8.0,9.0,24,0.00,,,0.00,meteohub,2013-10-17 22:02:00,
2013-10-17 17:07:00,68.5,24.6,29.85,NW,315,3.0,9.0,19,0.00,,,0.00,meteohub,2013-10-17 22:07:00,
2013-10-17 17:12:00,70.0,18.5,29.84,NW,315,3.0,9.0,14,0.00,,,0.00,meteohub,2013-10-17 22:12:00,
2013-10-17 17:17:00,70.9,13.8,29.84,SSE,158,4.0,9.0,11,0.00,,,0.00,meteohub,2013-10-17 22:17:00,
2013-10-17 17:22:00,70.7,13.6,29.84,NW,315,2.0,7.0,11,0.00,,,0.00,meteohub,2013-10-17 22:22:00,
2013-10-17 17:27:00,70.2,11.1,29.85,NNE,23,3.0,7.0,10,0.00,,,0.00,meteohub,2013-10-17 22:27:00,
2013-10-17 17:32:00,68.9,14.2,29.84,SW,225,4.0,4.0,12,0.00,,,0.00,meteohub,2013-10-17 22:32:00,
2013-10-17 17:37:00,68.2,9.5,29.85,South,180,2.0,6.0,10,0.00,,,0.00,meteohub,2013-10-17 22:37:00,
2013-10-17 17:42:00,66.4,12.2,29.85,West,270,7.0,7.0,12,0.00,,,0.00,meteohub,2013-10-17 22:42:00,
2013-10-17 17:47:00,64.9,16.2,29.85,North,0,4.0,7.0,15,0.00,,,0.00,meteohub,2013-10-17 22:47:00,
2013-10-17 17:52:00,63.9,16.7,29.85,SW,225,2.0,7.0,16,0.00,,,0.00,meteohub,2013-10-17 22:52:00,
2013-10-17 17:57:00,63.3,20.3,29.86,West,270,2.0,7.0,19,0.00,,,0.00,meteohub,2013-10-17 22:57:00,
2013-10-17 18:02:00,62.8,19.9,29.85,SW,225,2.0,6.0,19,0.00,,,0.00,meteohub,2013-10-17 23:02:00,
2013-10-17 18:07:00,62.1,21.7,29.86,SW,225,2.0,4.0,21,0.00,,,0.00,meteohub,2013-10-17 23:07:00,
2013-10-17 18:12:00,61.9,21.6,29.85,SW,225,5.0,5.0,21,0.00,,,0.00,meteohub,2013-10-17 23:12:00,
2013-10-17 18:17:00,61.7,22.5,29.86,SW,225,2.0,3.0,22,0.00,,,0.00,meteohub,2013-10-17 23:17:00,
2013-10-17 18:22:00,61.2,23.0,29.86,SW,225,2.0,5.0,23,0.00,,,0.00,meteohub,2013-10-17 23:22:00,
2013-10-17 18:27:00,60.6,23.5,29.86,SW,225,2.0,5.0,24,0.00,,,0.00,meteohub,2013-10-17 23:27:00,
2013-10-17 18:32:00,60.4,23.5,29.86,West,270,2.0,5.0,24,0.00,,,0.00,meteohub,2013-10-17 23:32:00,
2013-10-17 18:37:00,60.4,23.5,29.86,West,270,2.0,4.0,24,0.00,,,0.00,meteohub,2013-10-17 23:37:00,
2013-10-17 18:42:00,59.4,24.4,29.86,West,270,3.0,4.0,26,0.00,,,0.00,meteohub,2013-10-17 23:42:00,
2013-10-17 18:47:00,59.0,25.9,29.87,West,270,4.0,4.0,28,0.00,,,0.00,meteohub,2013-10-17 23:47:00,
2013-10-17 18:52:00,58.5,26.2,29.87,West,270,3.0,4.0,29,0.00,,,0.00,meteohub,2013-10-17 23:52:00,
2013-10-17 18:57:00,58.3,27.0,29.87,West,270,4.0,4.0,30,0.00,,,0.00,meteohub,2013-10-17 23:57:00,
2013-10-17 19:02:00,58.1,27.7,29.87,NW,315,6.0,6.0,31,0.00,,,0.00,meteohub,2013-10-18 00:02:00,
2013-10-17 19:07:00,58.1,27.7,29.87,NW,315,6.0,6.0,31,0.00,,,0.00,meteohub,2013-10-18 00:07:00,
2013-10-17 19:12:00,57.4,28.6,29.88,WSW,248,2.0,6.0,33,0.00,,,0.00,meteohub,2013-10-18 00:12:00,
2013-10-17 19:17:00,57.2,29.1,29.87,West,270,3.0,6.0,34,0.00,,,0.00,meteohub,2013-10-18 00:17:00,
2013-10-17 19:22:00,57.2,29.1,29.88,West,270,3.0,6.0,34,0.00,,,0.00,meteohub,2013-10-18 00:22:00,
2013-10-17 19:27:00,57.2,29.8,29.88,West,270,3.0,4.0,35,0.00,,,0.00,meteohub,2013-10-18 00:27:00,
2013-10-17 19:33:00,57.0,29.7,29.88,West,270,3.0,4.0,35,0.00,,,0.00,meteohub,2013-10-18 00:33:00,
2013-10-17 19:38:00,57.0,30.4,29.88,West,270,2.0,4.0,36,0.00,,,0.00,meteohub,2013-10-18 00:38:00,
2013-10-17 19:43:00,56.7,30.7,29.88,West,270,2.0,4.0,37,0.00,,,0.00,meteohub,2013-10-18 00:43:00,
2013-10-17 19:48:00,56.3,30.4,29.89,West,270,2.0,4.0,37,0.00,,,0.00,meteohub,2013-10-18 00:48:00,
2013-10-17 19:53:00,56.1,30.9,29.89,NW,315,2.0,3.0,38,0.00,,,0.00,meteohub,2013-10-18 00:53:00,
2013-10-17 19:58:00,55.9,30.7,29.89,West,270,2.0,3.0,38,0.00,,,0.00,meteohub,2013-10-18 00:58:00,
2013-10-17 20:03:00,55.8,31.1,29.89,WNW,293,2.0,3.0,39,0.00,,,0.00,meteohub,2013-10-18 01:03:00,
2013-10-17 20:08:00,55.2,31.3,29.89,WNW,293,2.0,3.0,40,0.00,,,0.00,meteohub,2013-10-18 01:08:00,
2013-10-17 20:13:00,55.0,31.8,29.89,SW,225,3.0,3.0,41,0.00,,,0.00,meteohub,2013-10-18 01:13:00,
2013-10-17 20:18:00,54.7,31.5,29.89,West,270,1.0,3.0,41,0.00,,,0.00,meteohub,2013-10-18 01:18:00,
2013-10-17 20:23:00,54.3,31.6,29.89,SW,225,1.0,3.0,42,0.00,,,0.00,meteohub,2013-10-18 01:23:00,
2013-10-17 20:28:00,54.0,32.0,29.89,SW,225,2.0,3.0,43,0.00,,,0.00,meteohub,2013-10-18 01:28:00,
2013-10-17 20:33:00,53.6,31.6,29.89,West,270,2.0,2.0,43,0.00,,,0.00,meteohub,2013-10-18 01:33:00,
2013-10-17 20:38:00,53.4,32.0,29.90,West,270,1.0,2.0,44,0.00,,,0.00,meteohub,2013-10-18 01:38:00,
2013-10-17 20:43:00,53.2,31.8,29.90,SW,225,1.0,2.0,44,0.00,,,0.00,meteohub,2013-10-18 01:43:00,
2013-10-17 20:48:00,53.1,31.6,29.90,West,270,1.0,2.0,44,0.00,,,0.00,meteohub,2013-10-18 01:48:00,
2013-10-17 20:53:00,53.1,31.6,29.90,West,270,1.0,2.0,44,0.00,,,0.00,meteohub,2013-10-18 01:53:00,
2013-10-17 20:58:00,52.9,32.2,29.90,SW,225,1.0,2.0,45,0.00,,,0.00,meteohub,2013-10-18 01:58:00,
2013-10-17 21:04:00,52.7,32.0,29.90,SW,225,1.0,2.0,45,0.00,,,0.00,meteohub,2013-10-18 02:04:00,
2013-10-17 21:09:00,52.5,32.4,29.90,SW,225,2.0,2.0,46,0.00,,,0.00,meteohub,2013-10-18 02:09:00,
2013-10-17 21:14:00,52.7,32.0,29.90,East,90,3.0,3.0,45,0.00,,,0.00,meteohub,2013-10-18 02:14:00,
2013-10-17 21:19:00,53.6,32.2,29.91,SE,135,2.0,4.0,44,0.00,,,0.00,meteohub,2013-10-18 02:19:00,
2013-10-17 21:24:00,54.1,32.2,29.91,NW,315,4.0,4.0,43,0.00,,,0.00,meteohub,2013-10-18 02:24:00,
2013-10-17 21:29:00,54.3,32.4,29.91,North,0,7.0,7.0,43,0.00,,,0.00,meteohub,2013-10-18 02:29:00,
2013-10-17 21:34:00,54.3,32.9,29.92,NW,315,4.0,7.0,44,0.00,,,0.00,meteohub,2013-10-18 02:34:00,
2013-10-17 21:39:00,54.0,33.6,29.93,SW,225,2.0,7.0,46,0.00,,,0.00,meteohub,2013-10-18 02:39:00,
2013-10-17 21:44:00,53.4,33.6,29.93,WNW,293,4.0,7.0,47,0.00,,,0.00,meteohub,2013-10-18 02:44:00,
2013-10-17 21:49:00,52.9,34.2,29.93,South,180,4.0,5.0,49,0.00,,,0.00,meteohub,2013-10-18 02:49:00,
2013-10-17 21:54:00,52.5,35.4,29.93,South,180,3.0,5.0,52,0.00,,,0.00,meteohub,2013-10-18 02:54:00,
2013-10-17 21:59:00,52.2,36.0,29.94,NNE,23,4.0,8.0,54,0.00,,,0.00,meteohub,2013-10-18 02:59:00,
2013-10-17 22:04:00,52.2,36.0,29.93,NNE,23,4.0,8.0,54,0.00,,,0.00,meteohub,2013-10-18 03:04:00,
2013-10-17 22:09:00,51.6,36.9,29.94,North,0,5.0,8.0,57,0.00,,,0.00,meteohub,2013-10-18 03:09:00,
2013-10-17 22:14:00,51.4,37.2,29.94,South,180,2.0,7.0,58,0.00,,,0.00,meteohub,2013-10-18 03:14:00,
2013-10-17 22:20:00,51.3,37.4,29.94,West,270,5.0,7.0,59,0.00,,,0.00,meteohub,2013-10-18 03:20:00,
2013-10-17 22:25:00,50.9,37.6,29.94,SE,135,4.0,7.0,60,0.00,,,0.00,meteohub,2013-10-18 03:25:00,
2013-10-17 22:30:00,50.7,37.8,29.94,WNW,293,4.0,7.0,61,0.00,,,0.00,meteohub,2013-10-18 03:30:00,
2013-10-17 22:35:00,50.5,37.6,29.95,NW,315,4.0,6.0,61,0.00,,,0.00,meteohub,2013-10-18 03:35:00,
2013-10-17 22:40:00,50.4,37.4,29.95,North,0,6.0,10.0,61,0.00,,,0.00,meteohub,2013-10-18 03:40:00,
2013-10-17 22:45:00,50.2,37.2,29.95,NW,315,7.0,10.0,61,0.00,,,0.00,meteohub,2013-10-18 03:45:00,
2013-10-17 22:50:00,50.0,37.6,29.94,NW,315,4.0,10.0,62,0.00,,,0.00,meteohub,2013-10-18 03:50:00,
2013-10-17 22:55:00,49.6,37.2,29.95,SW,225,4.0,8.0,62,0.00,,,0.00,meteohub,2013-10-18 03:55:00,
2013-10-17 23:00:00,49.5,37.4,29.95,NW,315,7.0,8.0,63,0.00,,,0.00,meteohub,2013-10-18 04:00:00,
2013-10-17 23:01:00,49.5,37.4,29.95,NW,315,7.0,7.0,63,0.00,,,0.00,meteohub,2013-10-18 04:01:00,
2013-10-17 23:02:00,49.5,37.4,29.95,NW,315,7.0,7.0,63,0.00,,,0.00,meteohub,2013-10-18 04:02:00,
2013-10-17 23:04:00,49.5,37.4,29.95,NW,315,7.0,7.0,63,0.00,,,0.00,meteohub,2013-10-18 04:04:00,
2013-10-17 23:05:00,49.5,37.4,29.95,NW,315,7.0,7.0,63,0.00,,,0.00,meteohub,2013-10-18 04:05:00,
2013-10-17 23:06:00,49.5,37.4,29.95,NW,315,7.0,7.0,63,0.00,,,0.00,meteohub,2013-10-18 04:06:00,
2013-10-17 23:11:00,48.9,37.2,29.96,North,0,4.0,8.0,64,0.00,,,0.00,meteohub,2013-10-18 04:11:00,
2013-10-17 23:16:00,48.7,37.0,29.96,West,270,4.0,8.0,64,0.00,,,0.00,meteohub,2013-10-18 04:16:00,
2013-10-17 23:21:00,48.6,37.4,29.96,NW,315,4.0,8.0,65,0.00,,,0.00,meteohub,2013-10-18 04:21:00,
2013-10-17 23:26:00,48.4,37.2,29.96,NW,315,3.0,8.0,65,0.00,,,0.00,meteohub,2013-10-18 04:26:00,
2013-10-17 23:31:00,48.2,37.0,29.96,West,270,4.0,4.0,65,0.00,,,0.00,meteohub,2013-10-18 04:31:00,
2013-10-17 23:37:00,48.0,37.2,29.96,WNW,293,4.0,5.0,66,0.00,,,0.00,meteohub,2013-10-18 04:37:00,
2013-10-17 23:42:00,47.7,36.9,29.96,South,180,3.0,5.0,66,0.00,,,0.00,meteohub,2013-10-18 04:42:00,
2013-10-17 23:47:00,47.5,36.7,29.96,North,0,5.0,5.0,66,0.00,,,0.00,meteohub,2013-10-18 04:47:00,
2013-10-17 23:52:00,47.5,37.0,29.96,West,270,3.0,5.0,67,0.00,,,0.00,meteohub,2013-10-18 04:52:00,
2013-10-17 23:57:00,47.1,36.7,29.96,West,270,2.0,5.0,67,0.00,,,0.00,meteohub,2013-10-18 04:57:00,